Location: Unspecified
(0.0000°N, 0.0000°E)
Time: 19:33:27
(UTC+00:00)

UNK - Visible Passes

Search period start: 18 May 2026 00:00
Search period end: 28 May 2026 00:00
Orbit: 659 x 677 km, 98.4° (Epoch: 18 May)

Date Brightness Start Highest point End Pass type
(mag) Time Alt. Az. Time Alt. Az. Time Alt. Az.
18 May ? 04:22:46 10° SSE 04:27:15 57° ENE 04:31:41 10° N visible
19 May ? 04:54:46 10° S 04:59:12 50° WSW 05:03:35 10° NNW visible
20 May ? 03:51:04 10° SE 03:54:22 20° ENE 03:57:40 10° NNE visible
20 May ? 05:27:56 10° SSW 05:31:07 19° WSW 05:34:18 10° WNW visible
21 May ? 04:21:51 10° SSE 04:26:19 54° ENE 04:30:44 10° N visible
22 May ? 04:53:49 10° S 04:58:16 53° WSW 05:02:40 10° NNW visible
23 May ? 03:50:14 10° ESE 03:53:26 19° ENE 03:56:38 10° NNE visible
23 May ? 05:26:55 10° SSW 05:30:11 20° WSW 05:33:27 10° WNW visible
24 May ? 04:20:57 10° SSE 04:25:23 51° ENE 04:29:46 10° N visible
25 May ? 04:52:52 10° S 04:57:19 55° WSW 05:01:45 10° NNW visible
26 May ? 03:49:24 10° ESE 03:52:30 18° ENE 03:55:35 10° NE visible
26 May ? 05:25:54 10° SSW 05:29:15 20° WSW 05:32:35 10° NW visible
27 May ? 04:20:03 10° SSE 04:24:26 49° ENE 04:28:48 10° N visible
